User: anonymous   Login
Location: Altleiningen
(49.5078°N, 8.0741°E)
Time: 04:36:45
(UTC+00:00)
Language:

N. Korean satellite - Orbit

View from above orbital plane
View from above orbital plane
View from above satellite
View from above satellite

Ground track
Ground track

The orbit data is extracted from the following two-line orbital elements,

1 39026U 12072A   21165.73829918  .00002347  00000-0  81254-4 0  9994
2 39026  97.2439 158.6681 0036756  36.6641 323.7104 15.30220398472673
Epoch (UTC): 14 June 2021 17:43:09
Eccentricity: 0.0036756
inclination: 97.2439°
perigee height: 450 km
apogee height: 500 km
right ascension of ascending node: 158.6681°
argument of perigee: 36.6641°
revolutions per day: 15.30220398
mean anomaly at epoch: 323.7104°
orbit number at epoch: 47267

The dashed part of the orbit path shows where the satellite is in the earth's shadow,  

DLR